P. Meadows Coastal Station, British Columbia

6:01 AM PST on February 22, 2017 (GMT -0800)
Pitt Meadows

Weather History for CWMM - October, 2012

Change the Weather History Date:

Saturday, October 27, 2012

  Actual Average Record
Temperature  
Mean Temperature 44 °F -  
Max Temperature 47 °F - - ()
Min Temperature 42 °F - - ()
Degree Days  
Heating Degree Days 20    
Moisture  
Dew Point 44 °F    
Average Humidity 96    
Maximum Humidity 97    
Minimum Humidity 93    
Precipitation  
Precipitation 0.51 in - - ()
Sea Level Pressure  
Sea Level Pressure 29.93 in    
Wind  
Wind Speed 2 mph ()    
Max Wind Speed 9 mph    
Max Gust Speed 18 mph    
T = Trace of Precipitation, MM = Missing Value Source: Averaged Metar Reports

Daily Weather History Graph

Daily Weather History Graph

Search for Another Location

Airport or City:

Trip Planner

Search our weather history database for the weather conditions in past years. The results will help you decide how hot, cold, wet, or windy it might be!

Date:

Astronomy

Oct. 27, 2012 Rise Set
Actual Time 7:51 AM PDT 5:56 PM PDT
Civil Twilight 7:18 AM PDT 6:29 PM PDT
Nautical Twilight 6:41 AM PDT 7:07 PM PDT
Astronomical Twilight 6:04 AM PDT 7:43 PM PDT
Moon 4:50 PM PDT (10/27) 5:44 AM PDT (10/27)
Length of Visible Light 11h 11m
Length of Day
10h 05m
Waxing Gibbous, 96% of the Moon is Illuminated
Oct 27
Waxing Gibbous
Oct 29
Full
Nov 6
Last Quarter
Nov 13
New
Nov 20
First Quarter

Hourly Weather History & Observations

Time (PDT) Temp. Windchill Dew Point Humidity Pressure Visibility Wind Dir Wind Speed Gust Speed Precip Events Conditions
12:00 AM 43.9 °F - 42.8 °F 96% 30.06 in - ESE 1.2 mph - 0.05 in   Unknown
1:00 AM 43.9 °F - 42.8 °F 96% 30.05 in - Calm Calm - 0.02 in   Unknown
2:00 AM 43.7 °F - 42.6 °F 96% 30.05 in - Calm Calm - N/A   Unknown
3:00 AM 43.9 °F - 42.8 °F 96% 30.04 in - Calm Calm - N/A   Unknown
4:00 AM 43.9 °F - 42.8 °F 96% 30.04 in - Calm Calm - 0.02 in   Unknown
5:00 AM 44 °F - 43 °F 94% 30.04 in - Calm Calm - -  
5:00 AM 43.9 °F - 42.8 °F 96% 30.04 in - Calm Calm - 0.02 in   Unknown
7:00 AM 43.9 °F - 42.8 °F 96% 30.02 in - East 1.2 mph - 0.03 in   Unknown
8:00 AM 44.1 °F - 43.0 °F 96% 30.01 in - Calm Calm - 0.03 in   Unknown
9:00 AM 44.1 °F - 43.2 °F 97% 30.00 in - Calm Calm - N/A   Unknown
10:00 AM 44.4 °F - 43.5 °F 97% 29.99 in - NNE 2.3 mph - 0.05 in   Unknown
11:00 AM 45 °F - 44 °F 93% 30.00 in - NNW 2.3 mph - -  
11:00 AM 44.8 °F - 43.7 °F 96% 30.00 in - NNW 2.3 mph - 0.04 in   Unknown
12:00 PM 45.5 °F 43.2 °F 44.4 °F 96% 29.99 in - North 4.6 mph - 0.06 in   Unknown
1:00 PM 46.8 °F - 45.7 °F 96% 29.96 in - ENE 1.2 mph - N/A   Unknown
2:00 PM 46.9 °F - 45.7 °F 95% 29.93 in - NE 3.5 mph - 0.03 in   Unknown
3:00 PM 46.8 °F - 45.7 °F 96% 29.90 in - North 6.9 mph - 0.01 in   Unknown
4:00 PM 46.6 °F - 45.3 °F 95% 29.86 in - North 6.9 mph - N/A   Unknown
5:00 PM 46 °F - 45 °F 96% 29.84 in - North 8.1 mph - -  
5:00 PM 46.4 °F 42.4 °F 45.1 °F 95% 29.84 in - North 8.1 mph - N/A   Unknown
6:00 PM 46.4 °F 43.5 °F 45.1 °F 95% 29.83 in - North 5.8 mph - 0.12 in   Unknown
7:00 PM 46.2 °F 42.7 °F 45.0 °F 95% 29.78 in - NNE 6.9 mph - 0.13 in   Unknown
8:00 PM 46.4 °F 43.5 °F 45.1 °F 95% 29.77 in - NE 5.8 mph - 0.05 in   Unknown
9:00 PM 45.9 °F 41.2 °F 44.6 °F 95% 29.76 in - NNE 9.2 mph - 0.04 in   Unknown
10:00 PM 45.5 °F 40.8 °F 44.2 °F 95% 29.76 in - NNE 9.2 mph 18.4 mph 0.05 in   Unknown
11:00 PM 46 °F - 45 °F 94% 29.77 in - NNE 6.9 mph - -  
11:00 PM 45.9 °F 42.3 °F 44.8 °F 96% 29.77 in - NNE 6.9 mph - 0.09 in   Unknown